NEW MELONES RESERVOIR (NML)

Elevation: 1135' · STANISLAUS R basin · Operator: US Bureau of Reclamation

Provisional data, subject to change.
Query executed Tuesday at 23:41:57   clock

Select a sensor type for a plot of data.
Note: Reservoir Flows are daily averages.

Earlier

Date RES ELE    STORAGE    RES CHG    TOC STO    ABV TOC    OUTFLOW    INFLOW    EVAP    FNF    RIV REL    PPT INC    SPILL    DIS PWR   
 FEET   AF   AF   AF   AF   CFS   CFS   CFS   CFS   CFS   INCHES   CFS   CFS  
07/21/2014 887.94 654349 -1879 2420000 -1765651 1254 364 57 489 0 0.00 0 1254
07/22/2014 887.35 651101 -3248 2420000 -1768899 1935 365 68 336 0 0.00 0 1935
07/23/2014 886.76 647861 -3240 2420000 -1772139 1923 357 67 282 0 0.00 0 1923
07/24/2014 886.07 644083 -3778 2420000 -1775917 2315 477 67 417 0 0.00 0 2315
07/25/2014 885.65 641794 -2289 2420000 -1778206 1571 484 67 396 0 0.00 0 1571
07/26/2014 885.13 638962 -2832 2420000 -1781038 1740 402 90 497 0 0.00 0 1740
07/27/2014 884.69 636575 -2387 2420000 -1783425 1543 429 89 300 0 0.00 0 1543
07/28/2014 884.05 633108 -3467 2420000 -1786892 2027 321 42 266 0 0.00 0 2027
07/29/2014 883.50 630143 -2965 2420000 -1789857 1803 386 78 276 0 0.00 0 1803
07/30/2014 883.11 628042 -2101 2420000 -1791958 1359 387 87 293 0 0.00 0 1359
07/31/2014 882.70 625841 -2201 2420000 -1794159 1376 349 83 236 0 0.00 0 1376
08/01/2014 882.12 622732 -3109 2420000 -1797268 1928 458 97 353 0 0.00 0 1928
08/02/2014 881.67 620329 -2403 2420000 -1799671 1463 340 88 203 0 0.00 0 1463
08/03/2014 881.18 617717 -2612 2420000 -1802283 1573 344 88 215 0 0.00 0 1573
08/04/2014 880.32 613151 -4566 2420000 -1806849 2566 317 53 185 0 0.01 0 2566
08/05/2014 879.85 610663 -2488 2420000 -1809337 1579 376 51 283 0 0.00 0 1579
08/06/2014 879.41 608342 -2321 2420000 -1811658 1561 452 61 330 0 0.00 0 1561
08/07/2014 878.95 605918 -2424 2420000 -1814082 1511 354 65 275 0 0.00 0 1511
08/08/2014 878.44 603242 -2676 2420000 -1816758 1618 327 58 234 0 0.00 0 1618
08/09/2014 877.98 600829 -2413 2420000 -1819171 1487 334 64 209 0 0.00 0 1487
08/10/2014 877.30 597280 -3549 2420000 -1822720 2095 377 71 269 0 0.00 0 2095
08/11/2014 876.86 594988 -2292 2420000 -1825012 1478 383 61 265 0 0.00 0 1478
08/12/2014 876.43 592757 -2231 2420000 -1827243 1409 351 67 207 0 0.00 0 1409
08/13/2014 875.98 590422 -2335 2420000 -1829578 1466 359 70 237 0 0.00 0 1466
08/14/2014 875.55 588202 -2220 2420000 -1831798 1498 441 62 313 0 0.00 0 1498
08/15/2014 875.04 585569 -2633 2420000 -1834431 1632 380 75 257 0 0.00 0 1632
08/16/2014 874.52 582899 -2670 2420000 -1837101 1663 387 70 235 0 0.00 0 1663
08/17/2014 874.04 580434 -2465 2420000 -1839566 1549 372 66 250 0 0.00 0 1549
08/18/2014 873.46 577472 -2962 2420000 -1842528 1742 323 74 214 0 0.00 0 1742
08/19/2014 -- -- -- -- -- -- -- -- -- -- -- -- --

Later | Latest

Warning! This data is preliminary and subject to revision.

Download Data Now Download Data Now | Show NML Map | Plot NML Data | 1 Month NML Data | Real-Time NML Data | NML Info